Time,TemperatureF,DewpointF,PressureIn,WindDirection,WindDirectionDegrees,WindSpeedMPH,WindSpeedGustMPH,Humidity,HourlyPrecipIn,Conditions,Clouds,dailyrainin,SoftwareType,DateUTC
2013-08-21 00:02:00,75.0,66.9,21.98,North,0,4.0,6.0,76,0.00,,,0.00,meteohub,2013-08-21 05:02:00,
2013-08-21 00:07:00,75.2,66.4,21.98,NW,315,5.0,5.0,74,0.00,,,0.00,meteohub,2013-08-21 05:07:00,
2013-08-21 00:12:00,75.2,66.4,21.98,West,270,4.0,6.0,74,0.00,,,0.00,meteohub,2013-08-21 05:12:00,
2013-08-21 00:17:00,75.4,66.6,21.99,West,270,5.0,6.0,74,0.00,,,0.00,meteohub,2013-08-21 05:17:00,
2013-08-21 00:22:00,75.4,66.2,21.99,West,270,5.0,6.0,73,0.00,,,0.00,meteohub,2013-08-21 05:22:00,
2013-08-21 00:27:00,75.4,66.2,21.99,SW,225,4.0,6.0,73,0.00,,,0.00,meteohub,2013-08-21 05:27:00,
2013-08-21 00:32:00,75.4,66.2,21.99,SW,225,8.0,8.0,73,0.00,,,0.00,meteohub,2013-08-21 05:32:00,
2013-08-21 00:37:00,75.4,66.2,21.99,South,180,8.0,8.0,73,0.00,,,0.00,meteohub,2013-08-21 05:37:00,
2013-08-21 00:42:00,75.2,66.0,21.99,SW,225,9.0,10.0,73,0.00,,,0.00,meteohub,2013-08-21 05:42:00,
2013-08-21 00:47:00,75.0,66.2,21.99,West,270,4.0,10.0,74,0.00,,,0.00,meteohub,2013-08-21 05:47:00,
2013-08-21 00:52:00,75.0,66.2,21.99,SW,225,5.0,10.0,74,0.00,,,0.00,meteohub,2013-08-21 05:52:00,
2013-08-21 00:57:00,74.8,66.4,21.99,SW,225,7.0,9.0,75,0.00,,,0.00,meteohub,2013-08-21 05:57:00,
2013-08-21 01:02:00,74.7,66.2,21.99,West,270,5.0,7.0,75,0.00,,,0.00,meteohub,2013-08-21 06:02:00,
2013-08-21 01:07:00,74.7,66.2,21.99,West,270,5.0,7.0,75,0.00,,,0.00,meteohub,2013-08-21 06:07:00,
2013-08-21 01:12:00,74.3,66.2,21.99,West,270,3.0,7.0,76,0.00,,,0.00,meteohub,2013-08-21 06:12:00,
2013-08-21 01:16:00,74.1,66.0,21.99,West,270,4.0,9.0,76,0.00,,,0.00,meteohub,2013-08-21 06:16:00,
2013-08-21 01:22:00,74.1,66.0,21.99,SW,225,4.0,9.0,76,0.00,,,0.00,meteohub,2013-08-21 06:22:00,
2013-08-21 01:27:00,74.1,66.0,21.99,SW,225,6.0,9.0,76,0.00,,,0.00,meteohub,2013-08-21 06:27:00,
2013-08-21 01:32:00,74.1,66.0,21.99,West,270,6.0,6.0,76,0.00,,,0.00,meteohub,2013-08-21 06:32:00,
2013-08-21 01:37:00,73.9,65.8,22.00,West,270,5.0,8.0,76,0.00,,,0.00,meteohub,2013-08-21 06:37:00,
2013-08-21 01:42:00,73.6,65.8,22.00,West,270,3.0,8.0,77,0.00,,,0.00,meteohub,2013-08-21 06:42:00,
2013-08-21 01:47:00,73.4,65.7,22.00,SW,225,4.0,6.0,77,0.00,,,0.00,meteohub,2013-08-21 06:47:00,
2013-08-21 01:52:00,73.0,65.8,22.00,SSW,203,2.0,5.0,78,0.00,,,0.00,meteohub,2013-08-21 06:52:00,
2013-08-21 01:57:00,72.7,65.8,22.00,SW,225,3.0,5.0,79,0.00,,,0.00,meteohub,2013-08-21 06:57:00,
2013-08-21 02:02:00,72.7,65.8,22.00,West,270,4.0,5.0,79,0.00,,,0.00,meteohub,2013-08-21 07:02:00,
2013-08-21 02:07:00,72.5,65.7,22.00,SW,225,4.0,4.0,79,0.00,,,0.00,meteohub,2013-08-21 07:07:00,
2013-08-21 02:12:00,72.3,65.8,22.00,South,180,4.0,4.0,80,0.00,,,0.00,meteohub,2013-08-21 07:12:00,
2013-08-21 02:17:00,72.3,65.8,22.00,West,270,4.0,6.0,80,0.00,,,0.00,meteohub,2013-08-21 07:17:00,
2013-08-21 02:22:00,72.3,65.8,22.00,South,180,5.0,6.0,80,0.00,,,0.00,meteohub,2013-08-21 07:22:00,
2013-08-21 02:27:00,72.3,65.8,22.01,West,270,8.0,8.0,80,0.00,,,0.00,meteohub,2013-08-21 07:27:00,
2013-08-21 02:32:00,72.5,65.7,22.01,West,270,4.0,8.0,79,0.00,,,0.00,meteohub,2013-08-21 07:32:00,
2013-08-21 02:37:00,72.3,65.5,22.00,South,180,6.0,8.0,79,0.00,,,0.00,meteohub,2013-08-21 07:37:00,
2013-08-21 02:42:00,72.3,65.8,22.00,SW,225,4.0,8.0,80,0.00,,,0.00,meteohub,2013-08-21 07:42:00,
2013-08-21 02:47:00,72.5,66.0,22.01,West,270,4.0,7.0,80,0.00,,,0.00,meteohub,2013-08-21 07:47:00,
2013-08-21 02:52:00,72.5,66.0,22.01,South,180,4.0,6.0,80,0.00,,,0.00,meteohub,2013-08-21 07:52:00,
2013-08-21 02:57:00,72.5,65.7,22.01,West,270,4.0,7.0,79,0.00,,,0.00,meteohub,2013-08-21 07:57:00,
2013-08-21 03:02:00,72.5,66.0,22.01,West,270,5.0,7.0,80,0.00,,,0.00,meteohub,2013-08-21 08:02:00,
2013-08-21 03:07:00,72.5,66.0,22.01,West,270,5.0,7.0,80,0.00,,,0.00,meteohub,2013-08-21 08:07:00,
2013-08-21 03:12:00,73.0,66.2,22.01,West,270,4.0,7.0,79,0.00,,,0.00,meteohub,2013-08-21 08:12:00,
2013-08-21 03:17:00,73.0,66.2,22.01,SW,225,5.0,7.0,79,0.00,,,0.00,meteohub,2013-08-21 08:17:00,
2013-08-21 03:22:00,73.0,66.2,22.00,NW,315,4.0,8.0,79,0.00,,,0.00,meteohub,2013-08-21 08:22:00,
2013-08-21 03:27:00,73.0,66.2,22.01,East,90,4.0,8.0,79,0.00,,,0.00,meteohub,2013-08-21 08:27:00,
2013-08-21 03:32:00,73.0,66.2,22.00,SW,225,7.0,8.0,79,0.00,,,0.00,meteohub,2013-08-21 08:32:00,
2013-08-21 03:37:00,73.0,66.2,22.00,West,270,5.0,7.0,79,0.00,,,0.00,meteohub,2013-08-21 08:37:00,
2013-08-21 03:41:00,73.2,66.4,22.00,SW,225,5.0,7.0,79,0.00,,,0.00,meteohub,2013-08-21 08:41:00,
2013-08-21 03:47:00,73.2,66.4,22.00,SW,225,4.0,8.0,79,0.00,,,0.00,meteohub,2013-08-21 08:47:00,
2013-08-21 03:52:00,73.4,66.9,22.00,North,0,5.0,8.0,80,0.00,,,0.00,meteohub,2013-08-21 08:52:00,
2013-08-21 03:56:00,73.4,66.9,22.00,West,270,4.0,8.0,80,0.00,,,0.00,meteohub,2013-08-21 08:56:00,
2013-08-21 04:02:00,73.4,66.9,22.00,North,0,5.0,10.0,80,0.00,,,0.00,meteohub,2013-08-21 09:02:00,
2013-08-21 04:07:00,73.2,66.4,22.00,SW,225,5.0,10.0,79,0.00,,,0.00,meteohub,2013-08-21 09:07:00,
2013-08-21 04:12:00,73.2,66.4,22.00,NW,315,6.0,10.0,79,0.00,,,0.00,meteohub,2013-08-21 09:12:00,
2013-08-21 04:17:00,73.2,66.4,22.00,West,270,6.0,6.0,79,0.00,,,0.00,meteohub,2013-08-21 09:17:00,
2013-08-21 04:22:00,73.2,66.4,22.00,West,270,3.0,9.0,79,0.00,,,0.00,meteohub,2013-08-21 09:22:00,
2013-08-21 04:27:00,73.0,66.2,22.00,SW,225,3.0,9.0,79,0.00,,,0.00,meteohub,2013-08-21 09:27:00,
2013-08-21 04:32:00,72.9,66.4,22.00,North,0,3.0,9.0,80,0.00,,,0.00,meteohub,2013-08-21 09:32:00,
2013-08-21 04:37:00,72.9,66.4,22.00,West,270,3.0,8.0,80,0.00,,,0.00,meteohub,2013-08-21 09:37:00,
2013-08-21 04:42:00,72.9,66.4,22.00,WSW,248,4.0,8.0,80,0.00,,,0.00,meteohub,2013-08-21 09:42:00,
2013-08-21 04:47:00,72.9,66.4,22.01,NW,315,4.0,8.0,80,0.00,,,0.00,meteohub,2013-08-21 09:47:00,
2013-08-21 04:52:00,72.9,66.4,22.01,SW,225,6.0,8.0,80,0.00,,,0.00,meteohub,2013-08-21 09:52:00,
2013-08-21 04:57:00,72.7,66.2,22.01,West,270,4.0,7.0,80,0.00,,,0.00,meteohub,2013-08-21 09:57:00,
2013-08-21 05:02:00,72.7,66.2,22.01,South,180,4.0,7.0,80,0.00,,,0.00,meteohub,2013-08-21 10:02:00,
2013-08-21 05:07:00,72.7,66.2,22.01,South,180,4.0,8.0,80,0.00,,,0.00,meteohub,2013-08-21 10:07:00,
2013-08-21 05:12:00,72.7,66.2,22.01,West,270,3.0,8.0,80,0.00,,,0.00,meteohub,2013-08-21 10:12:00,
2013-08-21 05:17:00,72.5,66.0,22.01,SW,225,3.0,6.0,80,0.00,,,0.00,meteohub,2013-08-21 10:17:00,
2013-08-21 05:22:00,72.5,66.4,22.01,South,180,4.0,6.0,81,0.00,,,0.00,meteohub,2013-08-21 10:22:00,
2013-08-21 05:27:00,72.5,66.4,22.01,West,270,3.0,8.0,81,0.00,,,0.00,meteohub,2013-08-21 10:27:00,
2013-08-21 05:32:00,72.3,66.2,22.01,SW,225,2.0,8.0,81,0.00,,,0.00,meteohub,2013-08-21 10:32:00,
2013-08-21 05:37:00,72.3,66.2,22.01,NW,315,4.0,8.0,81,0.00,,,0.00,meteohub,2013-08-21 10:37:00,
2013-08-21 05:42:00,72.1,66.0,22.00,SSE,158,5.0,5.0,81,0.00,,,0.00,meteohub,2013-08-21 10:42:00,
2013-08-21 05:47:00,72.1,66.4,22.01,West,270,7.0,7.0,82,0.00,,,0.00,meteohub,2013-08-21 10:47:00,
2013-08-21 05:52:00,72.1,66.4,22.01,West,270,2.0,7.0,82,0.00,,,0.00,meteohub,2013-08-21 10:52:00,
2013-08-21 05:57:00,72.0,66.2,22.01,West,270,5.0,7.0,82,0.00,,,0.00,meteohub,2013-08-21 10:57:00,
2013-08-21 06:02:00,72.0,66.2,22.00,NW,315,6.0,7.0,82,0.00,,,0.00,meteohub,2013-08-21 11:02:00,
2013-08-21 06:07:00,72.0,66.2,22.00,SW,225,4.0,6.0,82,0.00,,,0.00,meteohub,2013-08-21 11:07:00,
2013-08-21 06:12:00,72.0,66.2,22.00,SW,225,6.0,6.0,82,0.00,,,0.00,meteohub,2013-08-21 11:12:00,
2013-08-21 06:17:00,72.0,66.2,22.00,NW,315,3.0,6.0,82,0.00,,,0.00,meteohub,2013-08-21 11:17:00,
2013-08-21 06:22:00,72.0,66.2,22.00,West,270,5.0,6.0,82,0.00,,,0.00,meteohub,2013-08-21 11:22:00,
2013-08-21 06:27:00,72.0,66.6,22.00,South,180,3.0,6.0,83,0.00,,,0.00,meteohub,2013-08-21 11:27:00,
2013-08-21 06:32:00,72.1,66.4,22.00,West,270,4.0,7.0,82,0.00,,,0.00,meteohub,2013-08-21 11:32:00,
2013-08-21 06:37:00,72.1,66.4,22.00,West,270,4.0,7.0,82,0.00,,,0.00,meteohub,2013-08-21 11:37:00,
2013-08-21 06:42:00,72.3,66.6,22.00,West,270,4.0,8.0,82,0.00,,,0.00,meteohub,2013-08-21 11:42:00,
2013-08-21 06:47:00,72.3,66.6,22.00,West,270,3.0,8.0,82,0.00,,,0.00,meteohub,2013-08-21 11:47:00,
2013-08-21 06:52:00,72.3,66.6,22.00,West,270,3.0,8.0,82,0.00,,,0.00,meteohub,2013-08-21 11:52:00,
2013-08-21 06:57:00,72.5,66.7,22.00,West,270,7.0,7.0,82,0.00,,,0.00,meteohub,2013-08-21 11:57:00,
2013-08-21 07:02:00,72.7,66.9,22.00,NW,315,4.0,7.0,82,0.00,,,0.00,meteohub,2013-08-21 12:02:00,
2013-08-21 07:07:00,72.7,66.9,22.00,NW,315,4.0,7.0,82,0.00,,,0.00,meteohub,2013-08-21 12:07:00,
2013-08-21 07:12:00,72.9,67.1,22.00,West,270,4.0,8.0,82,0.00,,,0.00,meteohub,2013-08-21 12:12:00,
2013-08-21 07:17:00,73.0,67.3,22.00,West,270,4.0,8.0,82,0.00,,,0.00,meteohub,2013-08-21 12:17:00,
2013-08-21 07:22:00,73.2,67.5,22.00,West,270,9.0,9.0,82,0.00,,,0.00,meteohub,2013-08-21 12:22:00,
2013-08-21 07:27:00,73.4,68.0,22.00,West,270,4.0,9.0,83,0.00,,,0.00,meteohub,2013-08-21 12:27:00,
2013-08-21 07:32:00,73.6,68.2,22.00,South,180,4.0,9.0,83,0.00,,,0.00,meteohub,2013-08-21 12:32:00,
2013-08-21 07:37:00,73.9,68.2,22.00,NW,315,3.0,9.0,82,0.00,,,0.00,meteohub,2013-08-21 12:37:00,
2013-08-21 07:42:00,74.1,68.2,22.00,West,270,7.0,7.0,82,0.00,,,0.00,meteohub,2013-08-21 12:42:00,
2013-08-21 07:47:00,74.5,68.5,22.00,West,270,4.0,7.0,82,0.00,,,0.00,meteohub,2013-08-21 12:47:00,
2013-08-21 07:52:00,74.7,68.7,22.00,West,270,4.0,7.0,82,0.00,,,0.00,meteohub,2013-08-21 12:52:00,
2013-08-21 07:57:00,74.7,68.7,22.00,NW,315,8.0,8.0,82,0.00,,,0.00,meteohub,2013-08-21 12:57:00,
2013-08-21 08:02:00,74.7,68.7,21.99,NW,315,3.0,8.0,82,0.00,,,0.00,meteohub,2013-08-21 13:02:00,
2013-08-21 08:07:00,75.0,68.7,21.99,West,270,4.0,8.0,81,0.00,,,0.00,meteohub,2013-08-21 13:07:00,
2013-08-21 08:12:00,75.6,68.9,21.99,West,270,7.0,8.0,80,0.00,,,0.00,meteohub,2013-08-21 13:12:00,
2013-08-21 08:17:00,76.1,69.4,21.99,West,270,6.0,7.0,80,0.00,,,0.00,meteohub,2013-08-21 13:17:00,
2013-08-21 08:22:00,76.6,69.6,22.00,West,270,8.0,8.0,79,0.00,,,0.00,meteohub,2013-08-21 13:22:00,
2013-08-21 08:27:00,77.0,68.9,22.00,NW,315,6.0,8.0,76,0.00,,,0.00,meteohub,2013-08-21 13:27:00,
2013-08-21 08:32:00,77.7,69.1,22.00,West,270,6.0,10.0,75,0.00,,,0.00,meteohub,2013-08-21 13:32:00,
2013-08-21 08:37:00,77.9,68.9,22.00,West,270,11.0,13.0,74,0.00,,,0.00,meteohub,2013-08-21 13:37:00,
2013-08-21 08:42:00,77.9,68.9,22.00,West,270,8.0,13.0,74,0.00,,,0.00,meteohub,2013-08-21 13:42:00,
2013-08-21 08:47:00,77.5,68.9,22.00,West,270,11.0,13.0,75,0.00,,,0.00,meteohub,2013-08-21 13:47:00,
2013-08-21 08:52:00,77.4,68.9,22.00,West,270,4.0,12.0,75,0.00,,,0.00,meteohub,2013-08-21 13:52:00,
2013-08-21 08:57:00,78.3,69.6,22.00,NW,315,6.0,11.0,75,0.00,,,0.00,meteohub,2013-08-21 13:57:00,
2013-08-21 09:02:00,78.3,69.3,22.00,West,270,9.0,11.0,74,0.00,,,0.00,meteohub,2013-08-21 14:02:00,
2013-08-21 09:07:00,78.3,69.3,22.00,West,270,9.0,9.0,74,0.00,,,0.00,meteohub,2013-08-21 14:07:00,
2013-08-21 09:12:00,78.8,69.4,22.00,WSW,248,7.0,9.0,73,0.00,,,0.00,meteohub,2013-08-21 14:12:00,
2013-08-21 09:17:00,78.6,69.6,22.00,North,0,7.0,9.0,74,0.00,,,0.00,meteohub,2013-08-21 14:17:00,
2013-08-21 09:22:00,78.6,69.6,22.00,North,0,4.0,11.0,74,0.00,,,0.00,meteohub,2013-08-21 14:22:00,
2013-08-21 09:27:00,78.6,70.0,22.00,West,270,3.0,11.0,75,0.00,,,0.00,meteohub,2013-08-21 14:27:00,
2013-08-21 09:32:00,79.7,70.3,22.00,SW,225,8.0,8.0,73,0.00,,,0.00,meteohub,2013-08-21 14:32:00,
2013-08-21 09:37:00,80.8,70.2,22.00,West,270,7.0,8.0,70,0.00,,,0.00,meteohub,2013-08-21 14:37:00,
2013-08-21 09:42:00,81.1,69.6,22.01,West,270,7.0,9.0,68,0.00,,,0.00,meteohub,2013-08-21 14:42:00,
2013-08-21 09:47:00,80.6,69.4,22.00,NW,315,5.0,9.0,69,0.00,,,0.00,meteohub,2013-08-21 14:47:00,
2013-08-21 09:52:00,82.6,70.5,22.00,SW,225,6.0,8.0,67,0.00,,,0.00,meteohub,2013-08-21 14:52:00,
2013-08-21 09:57:00,83.1,70.2,22.00,West,270,10.0,10.0,65,0.00,,,0.00,meteohub,2013-08-21 14:57:00,
2013-08-21 10:02:00,83.3,70.3,22.01,SW,225,11.0,11.0,65,0.00,,,0.00,meteohub,2013-08-21 15:02:00,
2013-08-21 10:07:00,82.4,69.4,22.00,WNW,293,8.0,11.0,65,0.00,,,0.00,meteohub,2013-08-21 15:07:00,
2013-08-21 10:12:00,82.4,70.0,22.01,NW,315,4.0,11.0,66,0.00,,,0.00,meteohub,2013-08-21 15:12:00,
2013-08-21 10:16:00,82.9,70.3,22.01,NW,315,8.0,13.0,66,0.00,,,0.00,meteohub,2013-08-21 15:16:00,
2013-08-21 10:22:00,82.9,70.0,22.01,WNW,293,4.0,13.0,65,0.00,,,0.00,meteohub,2013-08-21 15:22:00,
2013-08-21 10:27:00,82.4,69.4,22.01,SW,225,4.0,13.0,65,0.00,,,0.00,meteohub,2013-08-21 15:27:00,
2013-08-21 10:32:00,83.1,69.6,22.00,North,0,8.0,13.0,64,0.00,,,0.00,meteohub,2013-08-21 15:32:00,
2013-08-21 10:37:00,83.7,70.2,22.00,West,270,7.0,13.0,64,0.00,,,0.00,meteohub,2013-08-21 15:37:00,
2013-08-21 10:42:00,84.6,70.5,22.00,NW,315,7.0,11.0,63,0.00,,,0.00,meteohub,2013-08-21 15:42:00,
2013-08-21 10:47:00,85.1,70.5,22.00,NW,315,5.0,10.0,62,0.00,,,0.00,meteohub,2013-08-21 15:47:00,
2013-08-21 10:52:00,85.8,70.9,22.01,NW,315,11.0,11.0,61,0.00,,,0.00,meteohub,2013-08-21 15:52:00,
2013-08-21 10:57:00,84.9,70.0,22.01,NW,315,11.0,17.0,61,0.00,,,0.00,meteohub,2013-08-21 15:57:00,
2013-08-21 11:02:00,84.7,70.3,22.01,West,270,4.0,17.0,62,0.00,,,0.00,meteohub,2013-08-21 16:02:00,
2013-08-21 11:07:00,85.3,70.7,22.01,NNW,338,13.0,17.0,62,0.00,,,0.00,meteohub,2013-08-21 16:07:00,
2013-08-21 11:12:00,84.9,70.9,22.02,SW,225,8.0,16.0,63,0.00,,,0.00,meteohub,2013-08-21 16:12:00,
2013-08-21 11:17:00,85.3,70.7,22.01,West,270,8.0,16.0,62,0.00,,,0.00,meteohub,2013-08-21 16:17:00,
2013-08-21 11:22:00,85.3,70.3,22.01,SSE,158,8.0,16.0,61,0.00,,,0.00,meteohub,2013-08-21 16:22:00,
2013-08-21 11:27:00,85.8,71.2,22.02,SW,225,11.0,12.0,62,0.00,,,0.00,meteohub,2013-08-21 16:27:00,
2013-08-21 11:32:00,86.4,71.2,22.02,NW,315,9.0,12.0,61,0.00,,,0.00,meteohub,2013-08-21 16:32:00,
2013-08-21 11:37:00,86.7,71.2,22.02,NW,315,10.0,12.0,60,0.00,,,0.00,meteohub,2013-08-21 16:37:00,
2013-08-21 11:42:00,87.3,71.6,22.02,West,270,8.0,12.0,60,0.00,,,0.00,meteohub,2013-08-21 16:42:00,
2013-08-21 11:47:00,87.1,71.1,22.02,West,270,6.0,12.0,59,0.00,,,0.00,meteohub,2013-08-21 16:47:00,
2013-08-21 11:52:00,87.4,71.8,22.02,North,0,11.0,12.0,60,0.00,,,0.00,meteohub,2013-08-21 16:52:00,
2013-08-21 11:57:00,87.3,71.2,22.02,SE,135,7.0,13.0,59,0.00,,,0.00,meteohub,2013-08-21 16:57:00,
2013-08-21 12:02:00,87.8,71.2,22.02,West,270,9.0,13.0,58,0.00,,,0.00,meteohub,2013-08-21 17:02:00,
2013-08-21 12:06:00,87.4,71.4,22.03,West,270,10.0,13.0,59,0.00,,,0.00,meteohub,2013-08-21 17:06:00,
2013-08-21 12:12:00,88.0,71.8,22.03,West,270,8.0,11.0,59,0.00,,,0.00,meteohub,2013-08-21 17:12:00,
2013-08-21 12:17:00,88.9,72.1,22.03,West,270,11.0,11.0,58,0.00,,,0.00,meteohub,2013-08-21 17:17:00,
2013-08-21 12:22:00,88.9,71.6,22.04,WNW,293,9.0,11.0,57,0.00,,,0.00,meteohub,2013-08-21 17:22:00,
2013-08-21 12:27:00,88.5,70.9,22.04,West,270,12.0,12.0,56,0.00,,,0.00,meteohub,2013-08-21 17:27:00,
2013-08-21 12:32:00,89.2,72.0,22.04,SW,225,8.0,14.0,57,0.00,,,0.00,meteohub,2013-08-21 17:32:00,
2013-08-21 12:37:00,89.4,71.6,22.04,SW,225,10.0,14.0,56,0.00,,,0.00,meteohub,2013-08-21 17:37:00,
2013-08-21 12:42:00,89.2,70.9,22.04,West,270,11.0,14.0,55,0.00,,,0.00,meteohub,2013-08-21 17:42:00,
2013-08-21 12:47:00,89.6,70.7,22.04,West,270,8.0,18.0,54,0.00,,,0.00,meteohub,2013-08-21 17:47:00,
2013-08-21 12:52:00,89.6,71.2,22.04,South,180,13.0,18.0,55,0.00,,,0.00,meteohub,2013-08-21 17:52:00,
2013-08-21 12:57:00,89.8,70.9,22.04,West,270,9.0,18.0,54,0.00,,,0.00,meteohub,2013-08-21 17:57:00,
2013-08-21 13:02:00,89.8,71.4,22.04,West,270,13.0,17.0,55,0.00,,,0.00,meteohub,2013-08-21 18:02:00,
2013-08-21 13:07:00,90.0,70.5,22.04,NW,315,12.0,17.0,53,0.00,,,0.00,meteohub,2013-08-21 18:07:00,
2013-08-21 13:12:00,90.0,71.1,22.04,NNW,338,8.0,17.0,54,0.00,,,0.00,meteohub,2013-08-21 18:12:00,
2013-08-21 13:16:00,90.1,70.2,22.04,NW,315,14.0,15.0,52,0.00,,,0.00,meteohub,2013-08-21 18:16:00,
2013-08-21 13:22:00,89.4,70.5,22.05,West,270,8.0,15.0,54,0.00,,,0.00,meteohub,2013-08-21 18:22:00,
2013-08-21 13:27:00,89.6,70.7,22.05,NW,315,11.0,16.0,54,0.00,,,0.00,meteohub,2013-08-21 18:27:00,
2013-08-21 13:32:00,89.8,70.3,22.04,West,270,13.0,16.0,53,0.00,,,0.00,meteohub,2013-08-21 18:32:00,
2013-08-21 13:37:00,90.7,71.2,22.05,West,270,16.0,18.0,53,0.00,,,0.00,meteohub,2013-08-21 18:37:00,
2013-08-21 13:42:00,90.3,70.9,22.05,West,270,10.0,18.0,53,0.00,,,0.00,meteohub,2013-08-21 18:42:00,
2013-08-21 13:47:00,89.8,70.3,22.05,NW,315,19.0,19.0,53,0.00,,,0.00,meteohub,2013-08-21 18:47:00,
2013-08-21 13:52:00,90.3,70.9,22.05,West,270,10.0,23.0,53,0.00,,,0.00,meteohub,2013-08-21 18:52:00,
2013-08-21 13:57:00,90.7,71.2,22.05,NW,315,11.0,23.0,53,0.00,,,0.00,meteohub,2013-08-21 18:57:00,
2013-08-21 14:02:00,91.4,71.8,22.05,NW,315,22.0,22.0,53,0.00,,,0.00,meteohub,2013-08-21 19:02:00,
2013-08-21 14:07:00,90.3,70.3,22.06,NW,315,14.0,22.0,52,0.00,,,0.00,meteohub,2013-08-21 19:07:00,
2013-08-21 14:12:00,90.7,71.8,22.06,WNW,293,7.0,22.0,54,0.00,,,0.00,meteohub,2013-08-21 19:12:00,
2013-08-21 14:17:00,91.4,71.2,22.06,NW,315,8.0,22.0,52,0.00,,,0.00,meteohub,2013-08-21 19:17:00,
2013-08-21 14:22:00,90.7,70.0,22.06,West,270,11.0,19.0,51,0.00,,,0.00,meteohub,2013-08-21 19:22:00,
2013-08-21 14:27:00,90.7,70.7,22.06,West,270,19.0,19.0,52,0.00,,,0.00,meteohub,2013-08-21 19:27:00,
2013-08-21 14:32:00,90.9,70.2,22.06,NW,315,17.0,19.0,51,0.00,,,0.00,meteohub,2013-08-21 19:32:00,
2013-08-21 14:37:00,91.4,71.2,22.06,SW,225,11.0,19.0,52,0.00,,,0.00,meteohub,2013-08-21 19:37:00,
2013-08-21 14:42:00,90.9,70.9,22.06,West,270,11.0,19.0,52,0.00,,,0.00,meteohub,2013-08-21 19:42:00,
2013-08-21 14:47:00,91.0,70.9,22.06,West,270,9.0,19.0,52,0.00,,,0.00,meteohub,2013-08-21 19:47:00,
2013-08-21 14:52:00,91.2,71.1,22.07,West,270,13.0,19.0,52,0.00,,,0.00,meteohub,2013-08-21 19:52:00,
2013-08-21 14:57:00,92.1,72.5,22.07,SW,225,8.0,17.0,53,0.00,,,0.00,meteohub,2013-08-21 19:57:00,
2013-08-21 15:02:00,92.5,71.1,22.07,NW,315,17.0,17.0,50,0.00,,,0.00,meteohub,2013-08-21 20:02:00,
2013-08-21 15:07:00,91.2,71.1,22.07,West,270,14.0,17.0,52,0.00,,,0.00,meteohub,2013-08-21 20:07:00,
2013-08-21 15:12:00,91.6,71.4,22.07,West,270,12.0,17.0,52,0.00,,,0.00,meteohub,2013-08-21 20:12:00,
2013-08-21 15:17:00,91.2,71.1,22.08,SW,225,17.0,17.0,52,0.00,,,0.00,meteohub,2013-08-21 20:17:00,
2013-08-21 15:22:00,91.0,71.6,22.08,West,270,12.0,17.0,53,0.00,,,0.00,meteohub,2013-08-21 20:22:00,
2013-08-21 15:27:00,91.2,71.1,22.08,NW,315,8.0,17.0,52,0.00,,,0.00,meteohub,2013-08-21 20:27:00,
2013-08-21 15:32:00,91.2,71.1,22.08,North,0,6.0,18.0,52,0.00,,,0.00,meteohub,2013-08-21 20:32:00,
2013-08-21 15:37:00,91.6,71.4,22.08,SW,225,13.0,18.0,52,0.00,,,0.00,meteohub,2013-08-21 20:37:00,
2013-08-21 15:42:00,91.8,72.1,22.08,SW,225,8.0,18.0,53,0.00,,,0.00,meteohub,2013-08-21 20:42:00,
2013-08-21 15:47:00,91.8,71.1,22.08,West,270,20.0,20.0,51,0.00,,,0.00,meteohub,2013-08-21 20:47:00,
2013-08-21 15:51:00,91.4,71.2,22.09,West,270,20.0,20.0,52,0.00,,,0.00,meteohub,2013-08-21 20:51:00,
2013-08-21 15:56:00,91.2,71.1,22.08,NW,315,9.0,20.0,52,0.00,,,0.00,meteohub,2013-08-21 20:56:00,
2013-08-21 16:02:00,91.4,71.2,22.08,SW,225,8.0,20.0,52,0.00,,,0.00,meteohub,2013-08-21 21:02:00,
2013-08-21 16:07:00,91.6,72.0,22.09,NW,315,18.0,20.0,53,0.00,,,0.00,meteohub,2013-08-21 21:07:00,
2013-08-21 16:12:00,91.2,71.6,22.09,West,270,12.0,18.0,53,0.00,,,0.00,meteohub,2013-08-21 21:12:00,
2013-08-21 16:17:00,91.4,71.8,22.09,NW,315,14.0,18.0,53,0.00,,,0.00,meteohub,2013-08-21 21:17:00,
2013-08-21 16:21:00,91.2,71.1,22.09,North,0,11.0,18.0,52,0.00,,,0.00,meteohub,2013-08-21 21:21:00,
2013-08-21 16:26:00,91.2,71.1,22.09,North,0,11.0,17.0,52,0.00,,,0.00,meteohub,2013-08-21 21:26:00,
2013-08-21 16:32:00,91.2,71.1,22.09,NW,315,11.0,17.0,52,0.00,,,0.00,meteohub,2013-08-21 21:32:00,
2013-08-21 16:37:00,91.4,71.8,22.09,West,270,9.0,17.0,53,0.00,,,0.00,meteohub,2013-08-21 21:37:00,
2013-08-21 16:42:00,91.4,71.8,22.09,West,270,12.0,17.0,53,0.00,,,0.00,meteohub,2013-08-21 21:42:00,
2013-08-21 16:47:00,90.3,70.9,22.09,West,270,9.0,17.0,53,0.00,,,0.00,meteohub,2013-08-21 21:47:00,
2013-08-21 16:52:00,90.0,71.1,22.08,South,180,6.0,18.0,54,0.00,,,0.00,meteohub,2013-08-21 21:52:00,
2013-08-21 16:57:00,89.6,71.2,22.08,NW,315,15.0,18.0,55,0.00,,,0.00,meteohub,2013-08-21 21:57:00,
2013-08-21 17:02:00,89.1,71.8,22.08,SW,225,8.0,18.0,57,0.00,,,0.00,meteohub,2013-08-21 22:02:00,
2013-08-21 17:07:00,88.5,72.3,22.08,NW,315,10.0,15.0,59,0.00,,,0.00,meteohub,2013-08-21 22:07:00,
2013-08-21 17:12:00,88.2,72.0,22.08,North,0,8.0,15.0,59,0.00,,,0.00,meteohub,2013-08-21 22:12:00,
2013-08-21 17:17:00,88.2,72.0,22.09,NW,315,8.0,11.0,59,0.00,,,0.00,meteohub,2013-08-21 22:17:00,
2013-08-21 17:22:00,87.8,71.6,22.09,NW,315,11.0,17.0,59,0.00,,,0.00,meteohub,2013-08-21 22:22:00,
2013-08-21 17:27:00,87.6,72.0,22.09,SW,225,8.0,17.0,60,0.00,,,0.00,meteohub,2013-08-21 22:27:00,
2013-08-21 17:32:00,87.4,71.8,22.09,West,270,6.0,17.0,60,0.00,,,0.00,meteohub,2013-08-21 22:32:00,
2013-08-21 17:37:00,87.3,72.1,22.09,West,270,5.0,11.0,61,0.00,,,0.00,meteohub,2013-08-21 22:37:00,
2013-08-21 17:42:00,87.1,72.0,22.09,North,0,7.0,11.0,61,0.00,,,0.00,meteohub,2013-08-21 22:42:00,
2013-08-21 17:47:00,86.7,71.6,22.10,NW,315,12.0,14.0,61,0.00,,,0.00,meteohub,2013-08-21 22:47:00,
2013-08-21 17:52:00,86.4,71.8,22.09,NW,315,11.0,16.0,62,0.00,,,0.00,meteohub,2013-08-21 22:52:00,
2013-08-21 17:57:00,86.2,71.6,22.09,NW,315,10.0,16.0,62,0.00,,,0.00,meteohub,2013-08-21 22:57:00,
2013-08-21 18:02:00,86.0,71.4,22.08,West,270,6.0,16.0,62,0.00,,,0.00,meteohub,2013-08-21 23:02:00,
2013-08-21 18:07:00,85.6,72.1,22.07,North,0,8.0,12.0,64,0.00,,,0.00,meteohub,2013-08-21 23:07:00,
2013-08-21 18:12:00,85.6,72.1,22.06,West,270,7.0,11.0,64,0.00,,,0.00,meteohub,2013-08-21 23:12:00,
2013-08-21 18:17:00,85.6,72.1,22.06,NE,45,10.0,10.0,64,0.00,,,0.00,meteohub,2013-08-21 23:17:00,
2013-08-21 18:22:00,85.5,72.3,22.07,NW,315,8.0,10.0,65,0.00,,,0.00,meteohub,2013-08-21 23:22:00,
2013-08-21 18:27:00,85.5,72.3,22.07,NE,45,7.0,10.0,65,0.00,,,0.00,meteohub,2013-08-21 23:27:00,
2013-08-21 18:32:00,85.5,72.3,22.07,East,90,3.0,10.0,65,0.00,,,0.00,meteohub,2013-08-21 23:32:00,
2013-08-21 18:37:00,85.5,72.9,22.07,NW,315,6.0,10.0,66,0.00,,,0.00,meteohub,2013-08-21 23:37:00,
2013-08-21 18:42:00,85.1,72.5,22.07,SE,135,4.0,10.0,66,0.00,,,0.00,meteohub,2013-08-21 23:42:00,
2013-08-21 18:47:00,84.9,72.7,22.07,WSW,248,5.0,7.0,67,0.00,,,0.00,meteohub,2013-08-21 23:47:00,
2013-08-21 18:52:00,84.9,73.2,22.07,North,0,4.0,7.0,68,0.00,,,0.00,meteohub,2013-08-21 23:52:00,
2013-08-21 18:57:00,84.7,73.0,22.07,West,270,4.0,8.0,68,0.00,,,0.00,meteohub,2013-08-21 23:57:00,
2013-08-21 19:02:00,84.7,73.4,22.06,NE,45,3.0,8.0,69,0.00,,,0.00,meteohub,2013-08-22 00:02:00,
2013-08-21 19:07:00,84.6,73.2,22.05,NW,315,2.0,8.0,69,0.00,,,0.00,meteohub,2013-08-22 00:07:00,
2013-08-21 19:12:00,84.4,73.0,22.04,West,270,4.0,6.0,69,0.00,,,0.00,meteohub,2013-08-22 00:12:00,
2013-08-21 19:17:00,84.4,73.6,22.04,NE,45,4.0,5.0,70,0.00,,,0.00,meteohub,2013-08-22 00:17:00,
2013-08-21 19:22:00,84.2,73.4,22.03,SE,135,6.0,6.0,70,0.00,,,0.00,meteohub,2013-08-22 00:22:00,
2013-08-21 19:27:00,84.4,73.0,22.02,West,270,4.0,16.0,69,0.00,,,0.00,meteohub,2013-08-22 00:27:00,
2013-08-21 19:32:00,84.4,72.7,22.02,NE,45,9.0,16.0,68,0.00,,,0.00,meteohub,2013-08-22 00:32:00,
2013-08-21 19:37:00,84.6,72.9,22.02,East,90,8.0,16.0,68,0.00,,,0.00,meteohub,2013-08-22 00:37:00,
2013-08-21 19:42:00,84.4,72.1,22.02,North,0,5.0,15.0,67,0.00,,,0.00,meteohub,2013-08-22 00:42:00,
2013-08-21 19:47:00,84.4,72.1,22.02,North,0,9.0,15.0,67,0.00,,,0.00,meteohub,2013-08-22 00:47:00,
2013-08-21 19:52:00,84.0,72.7,22.02,SE,135,3.0,11.0,69,0.00,,,0.00,meteohub,2013-08-22 00:52:00,
2013-08-21 19:57:00,83.8,73.0,22.02,North,0,7.0,11.0,70,0.00,,,0.00,meteohub,2013-08-22 00:57:00,
2013-08-21 20:02:00,83.7,72.9,22.01,SE,135,2.0,11.0,70,0.00,,,0.00,meteohub,2013-08-22 01:02:00,
2013-08-21 20:07:00,83.5,73.0,22.01,North,0,6.0,14.0,71,0.00,,,0.00,meteohub,2013-08-22 01:07:00,
2013-08-21 20:12:00,83.1,73.2,22.02,East,90,4.0,14.0,72,0.00,,,0.00,meteohub,2013-08-22 01:12:00,
2013-08-21 20:17:00,82.6,73.0,22.01,North,0,2.0,8.0,73,0.00,,,0.00,meteohub,2013-08-22 01:17:00,
2013-08-21 20:22:00,82.0,73.4,22.00,ESE,113,2.0,8.0,75,0.00,,,0.00,meteohub,2013-08-22 01:22:00,
2013-08-21 20:27:00,81.1,73.6,22.00,East,90,4.0,8.0,78,0.00,,,0.00,meteohub,2013-08-22 01:27:00,
2013-08-21 20:32:00,80.6,74.3,21.99,ENE,68,23.0,23.0,81,0.00,,,0.00,meteohub,2013-08-22 01:32:00,
2013-08-21 20:37:00,76.1,69.4,21.99,SE,135,11.0,24.0,80,0.01,,,0.01,meteohub,2013-08-22 01:37:00,
2013-08-21 20:42:00,74.3,69.1,21.99,East,90,8.0,24.0,84,0.01,,,0.01,meteohub,2013-08-22 01:42:00,
2013-08-21 20:47:00,73.4,68.9,21.97,SE,135,7.0,24.0,86,0.01,,,0.01,meteohub,2013-08-22 01:47:00,
2013-08-21 20:52:00,72.7,68.2,21.99,SW,225,2.0,18.0,86,0.01,,,0.01,meteohub,2013-08-22 01:52:00,
2013-08-21 20:57:00,72.1,68.4,21.99,West,270,2.0,15.0,88,0.01,,,0.01,meteohub,2013-08-22 01:57:00,
2013-08-21 21:02:00,71.6,68.5,22.00,SE,135,0.0,8.0,90,0.02,,,0.02,meteohub,2013-08-22 02:02:00,
2013-08-21 21:07:00,71.4,68.7,21.99,West,270,6.0,6.0,91,0.02,,,0.02,meteohub,2013-08-22 02:07:00,
2013-08-21 21:12:00,71.2,68.7,22.00,West,270,6.0,6.0,92,0.02,,,0.02,meteohub,2013-08-22 02:12:00,
2013-08-21 21:17:00,71.2,69.1,21.99,East,90,2.0,6.0,93,0.02,,,0.02,meteohub,2013-08-22 02:17:00,
2013-08-21 21:22:00,71.2,69.1,21.99,South,180,1.0,6.0,93,0.02,,,0.02,meteohub,2013-08-22 02:22:00,
2013-08-21 21:27:00,71.2,69.1,21.99,SE,135,1.0,6.0,93,0.02,,,0.02,meteohub,2013-08-22 02:27:00,
2013-08-21 21:32:00,71.1,69.3,21.98,SE,135,2.0,4.0,94,0.02,,,0.02,meteohub,2013-08-22 02:32:00,
2013-08-21 21:37:00,71.1,69.3,21.98,SE,135,3.0,3.0,94,0.01,,,0.02,meteohub,2013-08-22 02:37:00,
2013-08-21 21:42:00,70.9,69.1,21.99,South,180,2.0,6.0,94,0.01,,,0.02,meteohub,2013-08-22 02:42:00,
2013-08-21 21:47:00,70.9,69.4,21.98,West,270,0.0,6.0,95,0.01,,,0.02,meteohub,2013-08-22 02:47:00,
2013-08-21 21:52:00,70.9,69.4,21.98,SW,225,2.0,6.0,95,0.01,,,0.02,meteohub,2013-08-22 02:52:00,
2013-08-21 21:57:00,70.5,69.1,21.98,South,180,0.0,4.0,95,0.00,,,0.02,meteohub,2013-08-22 02:57:00,
2013-08-21 22:02:00,70.5,69.1,21.98,SE,135,2.0,4.0,95,0.00,,,0.02,meteohub,2013-08-22 03:02:00,
2013-08-21 22:07:00,70.3,68.9,21.98,West,270,1.0,3.0,95,0.00,,,0.02,meteohub,2013-08-22 03:07:00,
2013-08-21 22:12:00,70.5,69.1,21.99,West,270,1.0,2.0,95,0.00,,,0.02,meteohub,2013-08-22 03:12:00,
2013-08-21 22:17:00,70.5,69.1,21.98,NE,45,1.0,2.0,95,0.00,,,0.02,meteohub,2013-08-22 03:17:00,
2013-08-21 22:22:00,70.5,69.1,21.98,NE,45,1.0,2.0,95,0.00,,,0.02,meteohub,2013-08-22 03:22:00,
2013-08-21 22:27:00,70.3,69.1,21.98,East,90,2.0,2.0,96,0.00,,,0.02,meteohub,2013-08-22 03:27:00,
2013-08-21 22:32:00,70.3,69.1,21.98,NW,315,0.0,2.0,96,0.00,,,0.02,meteohub,2013-08-22 03:32:00,
2013-08-21 22:37:00,70.3,69.1,21.98,West,270,0.0,2.0,96,0.00,,,0.02,meteohub,2013-08-22 03:37:00,
2013-08-21 22:42:00,70.2,68.9,21.98,East,90,2.0,2.0,96,0.00,,,0.02,meteohub,2013-08-22 03:42:00,
2013-08-21 22:47:00,70.2,68.9,21.98,East,90,2.0,2.0,96,0.00,,,0.02,meteohub,2013-08-22 03:47:00,
2013-08-21 22:52:00,70.2,68.9,21.98,South,180,2.0,3.0,96,0.00,,,0.02,meteohub,2013-08-22 03:52:00,
2013-08-21 22:57:00,70.2,68.9,21.98,SW,225,0.0,3.0,96,0.00,,,0.02,meteohub,2013-08-22 03:57:00,
2013-08-21 23:01:00,70.2,68.9,21.98,NW,315,0.0,3.0,96,0.00,,,0.02,meteohub,2013-08-22 04:01:00,
2013-08-21 23:06:00,70.2,68.9,21.98,NW,315,0.0,3.0,96,0.00,,,0.02,meteohub,2013-08-22 04:06:00,
2013-08-21 23:11:00,69.8,68.5,21.98,West,270,2.0,2.0,96,0.00,,,0.02,meteohub,2013-08-22 04:11:00,
2013-08-21 23:16:00,69.8,68.5,21.98,West,270,0.0,2.0,96,0.00,,,0.02,meteohub,2013-08-22 04:16:00,
2013-08-21 23:21:00,69.6,68.7,21.97,SE,135,0.0,2.0,97,0.00,,,0.02,meteohub,2013-08-22 04:21:00,
2013-08-21 23:26:00,69.4,68.5,21.97,NW,315,0.0,2.0,97,0.00,,,0.02,meteohub,2013-08-22 04:26:00,
2013-08-21 23:31:00,69.4,68.5,21.97,South,180,0.0,2.0,97,0.00,,,0.02,meteohub,2013-08-22 04:31:00,
2013-08-21 23:36:00,69.4,68.9,21.97,SE,135,2.0,2.0,98,0.00,,,0.02,meteohub,2013-08-22 04:36:00,
2013-08-21 23:41:00,69.3,68.7,21.97,West,270,1.0,2.0,98,0.00,,,0.02,meteohub,2013-08-22 04:41:00,
2013-08-21 23:46:00,69.3,68.7,21.97,SE,135,2.0,3.0,98,0.00,,,0.02,meteohub,2013-08-22 04:46:00,
2013-08-21 23:51:00,69.3,68.7,21.97,SE,135,2.0,3.0,98,0.00,,,0.02,meteohub,2013-08-22 04:51:00,
2013-08-21 23:56:00,69.1,68.5,21.98,South,180,2.0,3.0,98,0.00,,,0.02,meteohub,2013-08-22 04:56:00,